Flag for Iran Weather past 2 weeks in Mashhad, Iran

Now
79 °F

Sunny.


Feels Like: 78 °F
Forecast: 54 / 82 °F
Wind: 7 mph from Northeast

Location: Mashhad Airport

Current Time: Aug 29, 2015 at 1:55:01 PM

Latest Report: Aug 29, 2015 at 1:00 PM


Visibility: 10 mi

Pressure: 30.18 "Hg (26.98 "Hg at 981m altitude)

Humidity: 15%

Dew point: 27 °F

Location of MashhadLocation

Historic Weather in Mashhad — Graph

°F

Mashhad temperature yesterday

Maximum temperature yesterday: 82 °F (at 1:30 PM)
Minimum temperature yesterday: 66 °F (at 2:00 AM)
Average temperature yesterday: 73 °F

Past Weeks' High & Low Weather Summary

 TemperatureHumidityPressure
High102 °F (Aug 17, 4:00 PM)67% (Aug 24, 3:00 AM)30.21 "Hg (Aug 24, 3:00 AM)
Low52 °F (Aug 24, 3:00 AM)4% (Aug 18, 1:30 PM)29.68 "Hg (Aug 21, 4:30 AM)
Average80 °F24%29.98 "Hg
* Reported Aug 14 11:30 AM — Aug 29 12:00 Noon, Mashhad, Weather by CustomWeather, © 2015

Note: Actual official high and low records may vary slightly from our data, if they occured in-between our weather recording intervals... More about our weather records

Advertising

Mashhad weather history for previous 24 hours

 ConditionsComfort  
Time TempWeatherWind HumidityBarometerVisibility
12:00 PM
Sat, Aug 29
79 °FSunny.14 mph13%30.18 "Hg10 mi
11:30 AM77 °FSunny.5 mph13%30.21 "Hg10 mi
10:30 AM75 °FSunny.9 mph15%30.21 "Hg10 mi
10:00 AM73 °FSunny.9 mph15%30.21 "Hg10 mi
9:30 AM72 °FSunny.7 mph17%30.21 "Hg10 mi
9:00 AM70 °FSunny.9 mph18%30.21 "Hg10 mi
8:30 AM70 °FSunny.7 mph20%30.21 "Hg10 mi
8:00 AM68 °FSunny.7 mph23%30.18 "Hg10 mi
7:30 AM66 °FSunny.7 mph28%30.21 "Hg10 mi
7:00 AM63 °FClear.7 mph32%30.18 "Hg10 mi
6:30 AM61 °FClear.5 mph36%30.18 "Hg10 mi
6:00 AM61 °FClear.7 mph34%30.18 "Hg10 mi
5:30 AM63 °FClear.7 mph32%30.18 "Hg10 mi
5:00 AM63 °FClear.5 mph34%30.15 "Hg10 mi
4:30 AM63 °FClear.7 mph34%30.15 "Hg10 mi
4:00 AM63 °FClear.5 mph34%30.15 "Hg10 mi
3:30 AM64 °FClear.5 mph32%30.18 "Hg10 mi
3:00 AM64 °FClear.5 mph32%30.18 "Hg10 mi
2:30 AM66 °FClear.5 mph30%30.18 "Hg10 mi
1:30 AM66 °FClear.5 mph28%30.18 "Hg10 mi
12:30 AM68 °FClear.5 mph28%30.18 "Hg10 mi
12:00 AM68 °FClear.5 mph28%30.18 "Hg10 mi
11:30 PM
Fri, Aug 28
68 °FClear.5 mph28%30.18 "Hg10 mi
10:30 PM70 °FClear.7 mph27%30.18 "Hg10 mi
9:30 PM70 °FClear.5 mph25%30.18 "Hg10 mi
9:00 PM70 °FClear.9 mph25%30.18 "Hg10 mi
8:30 PM72 °FSunny.9 mph22%30.18 "Hg10 mi
8:00 PM72 °FSunny.14 mph23%30.15 "Hg10 mi
7:30 PM73 °FSunny.14 mph23%30.15 "Hg10 mi
7:00 PM75 °FSunny.14 mph21%30.15 "Hg10 mi
6:30 PM77 °FPassing clouds.16 mph19%30.12 "HgN/A
6:00 PM81 °FPassing clouds.12 mph17%30.12 "HgN/A
5:30 PM81 °FPassing clouds.16 mph18%30.12 "HgN/A
5:00 PM82 °FPassing clouds.22 mph19%30.12 "HgN/A
4:30 PM82 °FPassing clouds.23 mph17%30.12 "HgN/A
4:00 PM82 °FPassing clouds.18 mph17%30.12 "HgN/A
3:30 PM82 °FPassing clouds.16 mph19%30.12 "HgN/A
3:00 PM82 °FPassing clouds.16 mph19%30.12 "HgN/A
2:30 PM82 °FPassing clouds.18 mph19%30.12 "HgN/A
2:00 PM82 °FPassing clouds.14 mph17%30.12 "HgN/A
1:30 PM82 °FPassing clouds.12 mph17%30.15 "HgN/A
1:00 PM81 °FSunny.12 mph18%30.15 "Hg10 mi
Weather by CustomWeather, © 2015

See weather overviewHow to use our weather pages